Wetterdaten: Dienstag, 23.09.2014
Datum Zeit Temp. A. Feuchte A. Luftdruck Regen Wind Richtung Richtung Sonnenschein ET UV Solar Taupunkt Windchill Windben Empfang
23.09.2014 00:00 7,7 C 83 % 1016,6 hPa 0,0 l/m 8,3 km/h (2 Bft) W 273 0 min 0,000 mm 0,0 UV-I 0 W/m 5,0 C 6,2 C 11,9 km/h (2 Bft) 0,00 %
23.09.2014 00:15 7,5 C 83 % 1016,6 hPa 0,0 l/m 0,4 km/h (0 Bft) W-SW 255 0 min 0,000 mm 0,0 UV-I 0 W/m 4,8 C 7,5 C 4,0 km/h (1 Bft) 0,00 %
23.09.2014 00:30 7,5 C 83 % 1016,6 hPa 0,0 l/m 3,2 km/h (1 Bft) W-SW 256 0 min 0,000 mm 0,0 UV-I 0 W/m 4,8 C 7,5 C 7,9 km/h (2 Bft) 0,00 %
23.09.2014 00:45 7,6 C 83 % 1016,8 hPa 0,0 l/m 0,4 km/h (0 Bft) O 93 0 min 0,000 mm 0,0 UV-I 0 W/m 4,9 C 7,6 C 4,0 km/h (1 Bft) 0,00 %
23.09.2014 01:00 7,7 C 82 % 1016,5 hPa 0,0 l/m 2,2 km/h (1 Bft) W 261 0 min 0,000 mm 0,0 UV-I 0 W/m 4,8 C 7,7 C 4,0 km/h (1 Bft) 0,00 %
23.09.2014 01:15 7,8 C 82 % 1016,4 hPa 0,0 l/m 7,9 km/h (2 Bft) S-SW 206 0 min 0,000 mm 0,0 UV-I 0 W/m 4,9 C 6,6 C 11,9 km/h (2 Bft) 0,00 %
23.09.2014 01:30 7,9 C 82 % 1016,3 hPa 0,0 l/m 18,0 km/h (3 Bft) W-SW 255 0 min 0,000 mm 0,0 UV-I 0 W/m 5,0 C 1,3 C 24,1 km/h (4 Bft) 0,00 %
23.09.2014 01:45 7,9 C 82 % 1016,4 hPa 0,0 l/m 3,2 km/h (1 Bft) N-NW 334 0 min 0,000 mm 0,0 UV-I 0 W/m 5,0 C 7,9 C 7,9 km/h (2 Bft) 0,00 %
23.09.2014 02:00 8,0 C 82 % 1016,7 hPa 0,0 l/m 1,4 km/h (1 Bft) S 190 0 min 0,000 mm 0,0 UV-I 0 W/m 5,1 C 8,0 C 4,0 km/h (1 Bft) 0,00 %
23.09.2014 02:15 8,0 C 82 % 1016,5 hPa 0,0 l/m 0,4 km/h (0 Bft) W-SW 256 0 min 0,000 mm 0,0 UV-I 0 W/m 5,1 C 8,0 C 4,0 km/h (1 Bft) 0,00 %
23.09.2014 02:30 7,7 C 83 % 1016,4 hPa 0,0 l/m 3,2 km/h (1 Bft) W-NW 294 0 min 0,000 mm 0,0 UV-I 0 W/m 5,0 C 7,7 C 7,9 km/h (2 Bft) 0,00 %
23.09.2014 02:45 7,6 C 83 % 1016,3 hPa 0,0 l/m 0,7 km/h (0 Bft) W-SW 253 0 min 0,000 mm 0,0 UV-I 0 W/m 4,9 C 7,6 C 4,0 km/h (1 Bft) 0,00 %
23.09.2014 03:00 7,6 C 84 % 1016,1 hPa 0,0 l/m 1,4 km/h (1 Bft) N-NW 332 0 min 0,000 mm 0,0 UV-I 0 W/m 5,1 C 7,6 C 4,0 km/h (1 Bft) 0,00 %
23.09.2014 03:15 7,4 C 85 % 1016,1 hPa 0,0 l/m 3,2 km/h (1 Bft) W-SW 257 0 min 0,000 mm 0,0 UV-I 0 W/m 5,0 C 7,4 C 7,9 km/h (2 Bft) 0,00 %
23.09.2014 03:30 7,4 C 85 % 1016,2 hPa 0,0 l/m 0,4 km/h (0 Bft) O-SO 103 0 min 0,000 mm 0,0 UV-I 0 W/m 5,0 C 7,4 C 4,0 km/h (1 Bft) 0,00 %
23.09.2014 03:45 7,3 C 85 % 1016,0 hPa 0,0 l/m 3,2 km/h (1 Bft) W-SW 253 0 min 0,000 mm 0,0 UV-I 0 W/m 4,9 C 7,3 C 7,9 km/h (2 Bft) 0,00 %
23.09.2014 04:00 7,4 C 84 % 1016,0 hPa 0,0 l/m 1,8 km/h (1 Bft) O-NO 69 0 min 0,000 mm 0,0 UV-I 0 W/m 4,9 C 7,4 C 7,9 km/h (2 Bft) 0,00 %
23.09.2014 04:15 7,4 C 84 % 1016,1 hPa 0,0 l/m 0,4 km/h (0 Bft) N-NO 32 0 min 0,000 mm 0,0 UV-I 0 W/m 4,9 C 7,4 C 4,0 km/h (1 Bft) 0,00 %
23.09.2014 04:30 7,5 C 84 % 1016,1 hPa 0,0 l/m 1,8 km/h (1 Bft) W-SW 251 0 min 0,000 mm 0,0 UV-I 0 W/m 5,0 C 7,5 C 4,0 km/h (1 Bft) 0,00 %
23.09.2014 04:45 7,5 C 84 % 1016,2 hPa 0,0 l/m 2,2 km/h (1 Bft) W-SW 251 0 min 0,000 mm 0,0 UV-I 0 W/m 5,0 C 7,5 C 4,0 km/h (1 Bft) 0,00 %
23.09.2014 05:00 7,6 C 84 % 1016,2 hPa 0,0 l/m 3,2 km/h (1 Bft) W-SW 254 0 min 0,000 mm 0,0 UV-I 0 W/m 5,1 C 7,6 C 7,9 km/h (2 Bft) 0,00 %
23.09.2014 05:15 7,6 C 84 % 1016,3 hPa 0,0 l/m 1,8 km/h (1 Bft) W-SW 252 0 min 0,000 mm 0,0 UV-I 0 W/m 5,1 C 7,6 C 4,0 km/h (1 Bft) 0,00 %
23.09.2014 05:30 7,7 C 84 % 1016,4 hPa 0,0 l/m 1,8 km/h (1 Bft) W 275 0 min 0,000 mm 0,0 UV-I 0 W/m 5,2 C 7,7 C 7,9 km/h (2 Bft) 0,00 %
23.09.2014 05:45 7,8 C 83 % 1016,5 hPa 0,0 l/m 1,8 km/h (1 Bft) W-SW 251 0 min 0,000 mm 0,0 UV-I 0 W/m 5,1 C 7,8 C 4,0 km/h (1 Bft) 0,00 %
23.09.2014 06:00 8,1 C 82 % 1016,3 hPa 0,0 l/m 9,0 km/h (2 Bft) W-SW 256 0 min 0,000 mm 0,0 UV-I 0 W/m 5,2 C 6,1 C 11,9 km/h (2 Bft) 0,00 %
23.09.2014 06:15 8,1 C 82 % 1016,4 hPa 0,0 l/m 8,3 km/h (2 Bft) W 271 0 min 0,000 mm 0,0 UV-I 0 W/m 5,2 C 6,6 C 11,9 km/h (2 Bft) 0,00 %
23.09.2014 06:30 8,2 C 82 % 1016,6 hPa 0,0 l/m 1,4 km/h (1 Bft) W-SW 256 0 min 0,000 mm 0,0 UV-I 0 W/m 5,3 C 8,2 C 4,0 km/h (1 Bft) 0,00 %
23.09.2014 06:45 8,1 C 82 % 1017,2 hPa 0,0 l/m 0,7 km/h (0 Bft) W-SW 255 0 min 0,000 mm 0,0 UV-I 0 W/m 5,2 C 8,1 C 4,0 km/h (1 Bft) 0,00 %
23.09.2014 07:00 8,2 C 82 % 1017,3 hPa 0,0 l/m 0,0 km/h (0 Bft) W-SW 256 0 min 0,000 mm 0,0 UV-I 0 W/m 5,3 C 8,2 C 0,0 km/h (0 Bft) 0,00 %
23.09.2014 07:15 8,1 C 82 % 1017,7 hPa 0,0 l/m 0,0 km/h (0 Bft) W-SW 252 0 min 0,000 mm 0,0 UV-I 0 W/m 5,2 C 8,1 C 0,0 km/h (0 Bft) 0,00 %
23.09.2014 07:30 8,1 C 82 % 1017,6 hPa 0,0 l/m 1,8 km/h (1 Bft) SW 232 0 min 0,000 mm 0,0 UV-I 1 W/m 5,2 C 8,1 C 4,0 km/h (1 Bft) 0,00 %
23.09.2014 07:45 8,2 C 82 % 1017,8 hPa 0,0 l/m 6,8 km/h (2 Bft) W-SW 251 0 min 0,000 mm 0,0 UV-I 2 W/m 5,3 C 7,9 C 7,9 km/h (2 Bft) 0,00 %
23.09.2014 08:00 8,3 C 82 % 1018,1 hPa 0,0 l/m 1,8 km/h (1 Bft) W-NW 285 0 min 0,000 mm 0,0 UV-I 8 W/m 5,4 C 8,3 C 4,0 km/h (1 Bft) 0,00 %
23.09.2014 08:15 7,9 C 84 % 1018,1 hPa 0,0 l/m 0,7 km/h (0 Bft) W-SW 251 0 min 0,000 mm 0,0 UV-I 10 W/m 5,4 C 7,9 C 4,0 km/h (1 Bft) 0,00 %
23.09.2014 08:30 7,9 C 84 % 1018,5 hPa 0,0 l/m 2,9 km/h (1 Bft) W-SW 251 0 min 0,000 mm 1,0 UV-I 12 W/m 5,4 C 7,9 C 4,0 km/h (1 Bft) 0,00 %
23.09.2014 08:45 8,1 C 84 % 1018,6 hPa 0,0 l/m 0,4 km/h (0 Bft) O 91 0 min 0,000 mm 1,0 UV-I 23 W/m 5,6 C 8,1 C 4,0 km/h (1 Bft) 0,00 %
23.09.2014 09:00 8,2 C 84 % 1018,8 hPa 0,0 l/m 5,4 km/h (1 Bft) W-SW 255 0 min 0,000 mm 1,0 UV-I 34 W/m 5,7 C 8,2 C 7,9 km/h (2 Bft) 0,00 %
23.09.2014 09:15 8,4 C 82 % 1018,7 hPa 0,0 l/m 0,0 km/h (0 Bft) S 182 0 min 0,000 mm 1,0 UV-I 41 W/m 5,5 C 8,4 C 0,0 km/h (0 Bft) 0,00 %
23.09.2014 09:30 8,8 C 82 % 1018,8 hPa 0,0 l/m 0,7 km/h (0 Bft) W-NW 285 0 min 0,000 mm 2,0 UV-I 52 W/m 5,9 C 8,8 C 4,0 km/h (1 Bft) 0,00 %
23.09.2014 09:45 9,0 C 81 % 1019,1 hPa 0,0 l/m 0,7 km/h (0 Bft) W-SW 253 0 min 0,000 mm 2,0 UV-I 78 W/m 5,9 C 9,0 C 4,0 km/h (1 Bft) 0,00 %
23.09.2014 10:00 9,3 C 80 % 1019,4 hPa 0,0 l/m 7,9 km/h (2 Bft) W-SW 255 0 min 0,000 mm 2,0 UV-I 107 W/m 6,0 C 8,2 C 11,9 km/h (2 Bft) 0,00 %
23.09.2014 10:15 9,5 C 79 % 1019,5 hPa 0,0 l/m 0,0 km/h (0 Bft) S-SW 200 0 min 0,000 mm 2,0 UV-I 114 W/m 6,0 C 9,5 C 0,0 km/h (0 Bft) 0,00 %
23.09.2014 10:30 9,9 C 77 % 1019,2 hPa 0,0 l/m 4,3 km/h (1 Bft) W 260 0 min 0,000 mm 2,0 UV-I 171 W/m 6,1 C 9,9 C 7,9 km/h (2 Bft) 0,00 %
23.09.2014 10:45 10,1 C 76 % 1019,4 hPa 0,0 l/m 0,0 km/h (0 Bft) S 184 0 min 0,000 mm 1,0 UV-I 137 W/m 6,1 C 10,1 C 0,0 km/h (0 Bft) 0,00 %
23.09.2014 11:00 10,3 C 75 % 1019,3 hPa 0,0 l/m 0,0 km/h (0 Bft) SW 230 0 min 0,000 mm 2,0 UV-I 216 W/m 6,1 C 10,3 C 0,0 km/h (0 Bft) 0,00 %
23.09.2014 11:15 10,6 C 74 % 1019,6 hPa 0,0 l/m 0,4 km/h (0 Bft) N 352 0 min 0,000 mm 2,0 UV-I 200 W/m 6,2 C 10,6 C 4,0 km/h (1 Bft) 0,00 %
23.09.2014 11:30 10,3 C 75 % 1019,4 hPa 0,0 l/m 0,0 km/h (0 Bft) W-SW 255 0 min 0,000 mm 3,0 UV-I 110 W/m 6,1 C 10,3 C 0,0 km/h (0 Bft) 0,00 %
23.09.2014 11:45 10,4 C 73 % 1019,4 hPa 0,0 l/m 2,9 km/h (1 Bft) W-SW 252 0 min 0,000 mm 2,0 UV-I 172 W/m 5,8 C 10,4 C 4,0 km/h (1 Bft) 0,00 %
23.09.2014 12:00 11,1 C 72 % 1019,4 hPa 0,0 l/m 6,5 km/h (2 Bft) NW 323 0 min 0,000 mm 2,0 UV-I 213 W/m 6,2 C 11,1 C 11,9 km/h (2 Bft) 0,00 %
23.09.2014 12:15 11,2 C 71 % 1019,4 hPa 0,0 l/m 4,3 km/h (1 Bft) W 267 0 min 0,000 mm 2,0 UV-I 186 W/m 6,1 C 11,2 C 7,9 km/h (2 Bft) 0,00 %
23.09.2014 12:30 11,7 C 70 % 1019,1 hPa 0,0 l/m 0,0 km/h (0 Bft) S 177 0 min 0,000 mm 3,0 UV-I 293 W/m 6,4 C 11,7 C 0,0 km/h (0 Bft) 0,00 %
23.09.2014 12:45 11,8 C 68 % 1019,3 hPa 0,0 l/m 2,9 km/h (1 Bft) W-SW 256 0 min 0,000 mm 4,0 UV-I 143 W/m 6,1 C 11,8 C 4,0 km/h (1 Bft) 0,00 %
23.09.2014 13:00 12,2 C 68 % 1019,3 hPa 0,0 l/m 2,2 km/h (1 Bft) O-SO 111 0 min 0,000 mm 1,0 UV-I 236 W/m 6,5 C 12,2 C 4,0 km/h (1 Bft) 0,00 %
23.09.2014 13:15 12,0 C 68 % 1019,2 hPa 0,0 l/m 3,2 km/h (1 Bft) W-SW 255 0 min 0,000 mm 3,0 UV-I 218 W/m 6,3 C 12,0 C 4,0 km/h (1 Bft) 0,00 %
23.09.2014 13:30 12,3 C 66 % 1019,1 hPa 0,0 l/m 2,9 km/h (1 Bft) W-SW 250 0 min 0,000 mm 2,0 UV-I 260 W/m 6,1 C 12,3 C 7,9 km/h (2 Bft) 0,00 %
23.09.2014 13:45 12,4 C 68 % 1019,2 hPa 0,0 l/m 0,0 km/h (0 Bft) S 180 0 min 0,000 mm 1,0 UV-I 141 W/m 6,7 C 12,4 C 0,0 km/h (0 Bft) 0,00 %
23.09.2014 14:00 12,6 C 66 % 1019,2 hPa 0,0 l/m 0,0 km/h (0 Bft) S 177 0 min 0,000 mm 3,0 UV-I 235 W/m 6,4 C 12,6 C 0,0 km/h (0 Bft) 0,00 %
23.09.2014 14:15 13,3 C 64 % 1018,6 hPa 0,0 l/m 1,4 km/h (1 Bft) O 97 0 min 0,000 mm 3,0 UV-I 325 W/m 6,6 C 13,3 C 4,0 km/h (1 Bft) 0,00 %
23.09.2014 14:30 12,6 C 63 % 1018,6 hPa 0,0 l/m 0,0 km/h (0 Bft) O-SO 108 0 min 0,000 mm 2,0 UV-I 123 W/m 5,7 C 12,6 C 0,0 km/h (0 Bft) 0,00 %
23.09.2014 14:45 13,0 C 63 % 1018,2 hPa 0,0 l/m 1,8 km/h (1 Bft) W-SW 252 0 min 0,000 mm 2,0 UV-I 259 W/m 6,1 C 13,0 C 4,0 km/h (1 Bft) 0,00 %
23.09.2014 15:00 13,7 C 61 % 1018,1 hPa 0,0 l/m 2,9 km/h (1 Bft) N-NW 332 0 min 0,000 mm 2,0 UV-I 151 W/m 6,3 C 13,7 C 4,0 km/h (1 Bft) 0,00 %
23.09.2014 15:15 14,5 C 56 % 1017,2 hPa 0,0 l/m 6,5 km/h (2 Bft) W 281 0 min 0,000 mm 2,0 UV-I 263 W/m 5,8 C 14,5 C 7,9 km/h (2 Bft) 0,00 %
23.09.2014 15:30 14,2 C 58 % 1017,4 hPa 0,0 l/m 0,0 km/h (0 Bft) S-SO 161 0 min 0,000 mm 2,0 UV-I 234 W/m 6,1 C 14,2 C 0,0 km/h (0 Bft) 0,00 %
23.09.2014 15:45 13,8 C 60 % 1017,2 hPa 0,0 l/m 0,0 km/h (0 Bft) W-SW 246 0 min 0,000 mm 2,0 UV-I 135 W/m 6,2 C 13,8 C 0,0 km/h (0 Bft) 0,00 %
23.09.2014 16:00 13,7 C 59 % 1017,6 hPa 0,0 l/m 0,0 km/h (0 Bft) S-SW 198 0 min 0,000 mm 2,0 UV-I 142 W/m 5,8 C 13,7 C 0,0 km/h (0 Bft) 0,00 %
23.09.2014 16:15 14,0 C 58 % 1017,0 hPa 0,0 l/m 0,0 km/h (0 Bft) S-SW 194 0 min 0,000 mm 1,0 UV-I 206 W/m 5,9 C 14,0 C 0,0 km/h (0 Bft) 0,00 %
23.09.2014 16:30 14,2 C 55 % 1016,5 hPa 0,0 l/m 0,4 km/h (0 Bft) N-NO 28 0 min 0,000 mm 1,0 UV-I 196 W/m 5,3 C 14,2 C 4,0 km/h (1 Bft) 0,00 %
23.09.2014 16:45 14,6 C 56 % 1016,8 hPa 0,0 l/m 1,4 km/h (1 Bft) W-NW 287 0 min 0,000 mm 1,0 UV-I 186 W/m 5,9 C 14,6 C 4,0 km/h (1 Bft) 0,00 %
23.09.2014 17:00 15,3 C 50 % 1016,2 hPa 0,0 l/m 0,4 km/h (0 Bft) W-SW 256 15 min 0,000 mm 1,0 UV-I 551 W/m 4,9 C 15,3 C 4,0 km/h (1 Bft) 0,00 %
23.09.2014 17:15 15,9 C 48 % 1016,3 hPa 0,0 l/m 0,4 km/h (0 Bft) O-SO 113 15 min 0,000 mm 1,0 UV-I 548 W/m 4,9 C 15,9 C 4,0 km/h (1 Bft) 0,00 %
23.09.2014 17:30 15,5 C 49 % 1015,9 hPa 0,0 l/m 0,0 km/h (0 Bft) S-SO 152 15 min 0,000 mm 1,0 UV-I 458 W/m 4,8 C 15,5 C 0,0 km/h (0 Bft) 0,00 %
23.09.2014 17:45 15,1 C 50 % 1016,2 hPa 0,0 l/m 0,0 km/h (0 Bft) W-SW 255 15 min 0,000 mm 0,0 UV-I 398 W/m 4,8 C 15,1 C 0,0 km/h (0 Bft) 0,00 %
23.09.2014 18:00 14,7 C 51 % 1016,1 hPa 0,0 l/m 0,0 km/h (0 Bft) S 185 15 min 0,000 mm 0,0 UV-I 315 W/m 4,7 C 14,7 C 0,0 km/h (0 Bft) 0,00 %
23.09.2014 18:15 14,3 C 52 % 1016,0 hPa 0,0 l/m 0,0 km/h (0 Bft) SW 227 15 min 0,000 mm 0,0 UV-I 261 W/m 4,6 C 14,3 C 0,0 km/h (0 Bft) 0,00 %
23.09.2014 18:30 13,5 C 55 % 1016,1 hPa 0,0 l/m 0,0 km/h (0 Bft) SW 227 15 min 0,000 mm 0,0 UV-I 159 W/m 4,6 C 13,5 C 0,0 km/h (0 Bft) 0,00 %
23.09.2014 18:45 12,3 C 65 % 1016,7 hPa 0,0 l/m 0,0 km/h (0 Bft) S 184 15 min 0,000 mm 0,0 UV-I 63 W/m 5,9 C 12,3 C 0,0 km/h (0 Bft) 0,00 %
23.09.2014 19:00 10,9 C 65 % 1016,7 hPa 0,0 l/m 0,0 km/h (0 Bft) S 186 0 min 0,000 mm 0,0 UV-I 1 W/m 4,6 C 10,9 C 0,0 km/h (0 Bft) 0,00 %
23.09.2014 19:15 10,1 C 73 % 1016,8 hPa 0,0 l/m 0,0 km/h (0 Bft) S-SW 193 0 min 0,000 mm 0,0 UV-I 0 W/m 5,5 C 10,1 C 0,0 km/h (0 Bft) 0,00 %
23.09.2014 19:30 8,9 C 79 % 1017,4 hPa 0,0 l/m 0,0 km/h (0 Bft) S 179 0 min 0,000 mm 0,0 UV-I 0 W/m 5,5 C 8,9 C 0,0 km/h (0 Bft) 0,00 %
23.09.2014 19:45 8,0 C 82 % 1017,4 hPa 0,0 l/m 0,0 km/h (0 Bft) S 188 0 min 0,000 mm 0,0 UV-I 0 W/m 5,1 C 8,0 C 0,0 km/h (0 Bft) 0,00 %
23.09.2014 20:00 7,6 C 82 % 1017,9 hPa 0,0 l/m 0,0 km/h (0 Bft) S 180 0 min 0,000 mm 0,0 UV-I 0 W/m 4,7 C 7,6 C 0,0 km/h (0 Bft) 0,00 %
23.09.2014 20:15 7,5 C 82 % 1018,0 hPa 0,0 l/m 0,0 km/h (0 Bft) S-SW 209 0 min 0,000 mm 0,0 UV-I 0 W/m 4,6 C 7,5 C 0,0 km/h (0 Bft) 0,00 %
23.09.2014 20:30 6,9 C 84 % 1018,2 hPa 0,0 l/m 0,0 km/h (0 Bft) W-SW 252 0 min 0,000 mm 0,0 UV-I 0 W/m 4,4 C 6,9 C 0,0 km/h (0 Bft) 0,00 %
23.09.2014 20:45 6,5 C 86 % 1018,3 hPa 0,0 l/m 0,0 km/h (0 Bft) W-SW 252 0 min 0,000 mm 0,0 UV-I 0 W/m 4,3 C 6,5 C 0,0 km/h (0 Bft) 0,00 %
23.09.2014 21:00 6,3 C 87 % 1018,3 hPa 0,0 l/m 0,0 km/h (0 Bft) W-SW 243 0 min 0,000 mm 0,0 UV-I 0 W/m 4,3 C 6,3 C 0,0 km/h (0 Bft) 0,00 %
23.09.2014 21:15 6,2 C 88 % 1018,2 hPa 0,0 l/m 0,0 km/h (0 Bft) SW 224 0 min 0,000 mm 0,0 UV-I 0 W/m 4,4 C 6,2 C 0,0 km/h (0 Bft) 0,00 %
23.09.2014 21:30 6,0 C 88 % 1018,4 hPa 0,0 l/m 0,0 km/h (0 Bft) SW 222 0 min 0,000 mm 0,0 UV-I 0 W/m 4,2 C 6,0 C 0,0 km/h (0 Bft) 0,00 %
23.09.2014 21:45 5,8 C 89 % 1018,2 hPa 0,0 l/m 0,0 km/h (0 Bft) W-SW 240 0 min 0,000 mm 0,0 UV-I 0 W/m 4,1 C 5,8 C 0,0 km/h (0 Bft) 0,00 %
23.09.2014 22:00 5,8 C 89 % 1018,4 hPa 0,0 l/m 0,0 km/h (0 Bft) W-SW 239 0 min 0,000 mm 0,0 UV-I 0 W/m 4,1 C 5,8 C 0,0 km/h (0 Bft) 0,00 %
23.09.2014 22:15 5,6 C 90 % 1018,3 hPa 0,0 l/m 0,0 km/h (0 Bft) W-SW 239 0 min 0,000 mm 0,0 UV-I 0 W/m 4,1 C 5,6 C 0,0 km/h (0 Bft) 0,00 %
23.09.2014 22:30 5,4 C 89 % 1018,6 hPa 0,0 l/m 0,0 km/h (0 Bft) W-SW 239 0 min 0,000 mm 0,0 UV-I 0 W/m 3,7 C 5,4 C 0,0 km/h (0 Bft) 0,00 %
23.09.2014 22:45 5,4 C 91 % 1018,4 hPa 0,0 l/m 0,0 km/h (0 Bft) W-SW 239 0 min 0,000 mm 0,0 UV-I 0 W/m 4,1 C 5,4 C 0,0 km/h (0 Bft) 0,00 %
23.09.2014 23:00 5,4 C 91 % 1018,2 hPa 0,0 l/m 0,0 km/h (0 Bft) W-SW 256 0 min 0,000 mm 0,0 UV-I 0 W/m 4,1 C 5,4 C 0,0 km/h (0 Bft) 0,00 %
23.09.2014 23:15 5,4 C 91 % 1018,2 hPa 0,0 l/m 0,0 km/h (0 Bft) O-NO 78 0 min 0,000 mm 0,0 UV-I 0 W/m 4,1 C 5,4 C 0,0 km/h (0 Bft) 0,00 %
23.09.2014 23:30 5,4 C 90 % 1018,4 hPa 0,0 l/m 0,0 km/h (0 Bft) O-SO 115 0 min 0,000 mm 0,0 UV-I 0 W/m 3,9 C 5,4 C 0,0 km/h (0 Bft) 0,00 %
23.09.2014 23:45 5,3 C 91 % 1018,4 hPa 0,0 l/m 0,0 km/h (0 Bft) SO 140 0 min 0,000 mm 0,0 UV-I 0 W/m 4,0 C 5,3 C 0,0 km/h (0 Bft) 0,00 %
_ Min-Zeit 23:45 17:15 17:30 - 07:00 - - - - - - 22:30 01:30 07:00 00:00
Minimum _ 5,3 C 48 % 1015,9 hPa - 0,0 km/h (0 Bft) - - - - - - 3,7 C 1,3 C 0,0 km/h (0 Bft) 0,00 %
_ Max-Zeit 17:15 22:45 11:15 00:00 01:30 - - 17:00 00:00 12:45 17:00 13:45 17:15 01:30 00:00
Maximum _ 15,9 C 91 % 1019,6 hPa 0,0 l/m 18,0 km/h
W-SW (3 Bft)
- - 15 min 0,000 mm 4,0 UV-I 551 W/m 6,7 C 15,9 C 24,1 km/h
W-SW (4 Bft)
0,00 %
Durchschnitt _ 9,4 C 76 % 1017,6 hPa #0,0 l/m 1,7 km/h (1 Bft) W-SW - #2:00 h #0,000 mm 1,8 UV-I 178 W/m 5,3 C 9,3 C 3,5 km/h (1 Bft) 0,00 %